Theta_e
331 331 330 331 330 330 329 329 331 331 329 329 331 331 329 329 329 333 333 342 344 343 344 344 343 343 345 347 349 348 346 347 346 346 346 346 344 343 343 343 342 342 342
332 332 333 332 330 329 329 329 328 327 327 327 327 328 331 328 329 332 335 334 342 342 345 343 343 343 343 346 348 348 347 346 347 346 345 344 345 344 343 343 343 343 342
333 334 331 330 330 330 330 328 328 328 327 327 326 330 331 328 328 331 331 331 336 341 342 344 343 343 343 344 348 348 347 347 347 346 344 344 343 343 343 343 343 342 340
335 334 330 330 330 331 329 328 327 326 326 325 324 326 327 328 327 332 330 332 332 332 338 341 343 344 345 343 347 348 348 346 346 345 344 344 343 342 342 343 342 340 337
338 333 331 330 331 331 329 328 327 325 323 324 324 324 324 324 326 330 329 328 330 331 331 339 340 342 344 345 347 348 347 346 345 345 345 344 343 342 342 341 339 337 335
337 333 332 331 330 329 328 326 325 325 324 323 326 325 323 325 326 324 328 330 329 329 330 329 334 336 343 345 347 348 348 347 346 345 343 342 341 341 341 339 337 335 334
335 333 330 329 330 328 328 326 325 323 323 323 319 320 322 324 324 325 325 326 327 327 325 332 332 333 336 343 345 347 348 347 347 345 341 340 340 341 340 337 337 336 334
333 330 330 328 328 326 326 325 325 322 321 322 317 316 310 314 321 324 325 325 325 325 326 333 332 333 331 335 340 344 347 346 348 345 340 339 340 339 338 338 337 335 333
333 330 330 327 327 326 325 322 322 321 318 319 323 317 310 308 312 319 322 324 325 328 326 331 331 333 332 334 339 344 344 343 345 344 341 339 340 339 338 337 336 334 332
334 332 329 328 326 326 324 324 325 321 320 317 319 322 321 318 311 309 317 320 323 324 325 326 327 330 332 331 338 342 339 340 343 343 341 340 339 337 336 335 334 333 327
330 331 329 328 326 325 325 324 323 322 321 318 317 317 320 319 319 316 309 313 319 322 324 326 327 328 331 332 332 337 336 334 337 338 338 338 337 335 334 333 330 327 331
328 329 330 326 325 325 325 325 325 323 321 320 320 320 317 314 313 315 311 312 314 319 324 326 327 327 328 333 337 335 332 331 330 331 333 334 333 333 331 330 328 328 331
325 326 326 325 325 327 327 326 324 324 324 321 321 321 321 320 319 315 313 314 317 322 325 328 330 332 332 333 330 333 332 329 328 327 327 327 328 330 329 329 330 332 331
325 325 327 327 328 330 330 328 326 325 326 324 322 322 322 322 323 321 315 317 315 316 320 321 326 331 334 333 331 332 329 326 324 323 323 324 326 327 327 328 330 330 330
325 328 327 327 328 328 329 327 325 326 324 326 325 325 324 326 326 324 322 320 316 314 314 319 321 328 332 334 332 329 326 324 324 322 322 322 321 323 325 326 326 326 326
327 327 327 328 327 328 328 327 325 327 323 323 323 323 324 323 323 325 325 320 318 316 313 320 321 325 328 328 330 326 325 324 322 321 321 320 321 321 321 321 323 323 323
329 326 327 328 328 327 326 326 326 326 323 322 322 322 323 324 322 324 325 321 318 318 316 319 322 324 322 323 324 325 325 323 320 320 321 319 318 318 319 319 319 320 321
324 325 328 329 328 326 324 328 325 326 323 323 323 321 322 327 324 325 323 321 320 321 319 316 320 319 320 323 324 322 321 322 323 321 318 317 316 316 316 315 314 314 314
327 324 327 327 327 326 328 328 327 327 326 324 322 322 321 324 323 324 322 321 320 321 321 319 318 321 321 322 321 321 321 322 323 320 316 316 314 313 311 310 310 309 308
325 327 328 327 328 327 328 328 328 327 326 326 324 323 323 324 323 323 321 320 321 320 319 318 317 318 319 319 320 317 315 318 318 317 314 312 311 311 309 309 309 307 305
328 329 328 327 326 324 322 322 329 326 324 322 322 324 326 324 322 322 322 321 320 319 318 316 315 316 316 315 314 316 314 314 312 310 307 306 305 305 306 307 308 305 302
328 328 324 325 321 321 305 307 320 325 325 322 322 323 322 319 316 313 314 315 319 319 316 316 315 315 314 314 316 315 313 312 307 310 307 304 305 303 301 301 303 301 300
326 326 324 322 319 314 302 302 310 325 322 321 323 325 323 322 320 319 311 312 311 311 314 318 315 315 314 316 316 315 313 311 308 309 307 301 300 296 298 299 300 299 299
325 323 324 321 317 314 302 301 309 324 322 324 323 323 323 323 321 322 322 321 321 321 321 322 320 318 317 318 318 317 316 313 312 310 307 299 299 296 296 296 299 298 297
324 323 324 320 317 314 303 302 318 324 323 324 326 324 325 323 307 309 322 320 320 319 310 307 307 306 304 306 312 319 314 311 308 307 310 301 299 296 295 293 295 298 297
324 326 325 322 315 315 304 301 318 327 323 321 322 321 311 318 304 307 322 321 318 319 319 318 315 310 312 310 311 317 315 311 308 305 310 304 299 298 294 296 293 294 293
Wind_Speed
5 4 4 3 4 4 5 5 5 6 6 6 5 5 5 5 6 3 3 14 15 14 15 16 16 15 13 12 12 16 20 21 20 18 17 17 16 15 14 12 12 13 17
5 4 4 4 4 5 4 4 4 4 4 4 5 6 6 5 4 5 5 5 12 14 15 15 15 15 15 14 14 17 19 21 22 20 18 17 16 15 16 15 15 18 19
7 5 4 2 3 3 3 2 2 2 3 3 5 5 5 6 5 5 5 4 5 11 13 14 16 16 16 15 15 16 19 20 21 20 19 17 14 14 14 17 19 20 18
8 5 3 3 3 3 3 2 3 3 3 4 4 4 4 4 6 4 4 4 5 5 10 14 15 14 15 16 16 16 19 20 20 21 18 17 16 14 17 21 21 20 20
7 6 4 4 4 4 3 3 4 4 3 4 4 4 4 4 5 3 5 6 6 6 5 13 16 15 15 16 17 17 19 21 20 20 21 19 18 19 21 21 20 19 19
8 6 5 5 4 4 4 4 5 4 3 4 3 4 4 3 3 3 5 4 5 6 6 7 6 8 15 15 15 16 19 23 21 21 20 19 19 20 21 23 20 20 20
7 6 4 5 5 5 5 5 4 6 4 3 1 1 2 4 4 4 4 4 4 5 6 5 6 5 7 16 14 15 19 24 26 24 21 20 20 22 22 22 19 19 18
7 6 5 5 5 3 5 5 4 2 3 4 3 2 1 4 3 4 3 4 6 4 5 6 6 7 5 5 7 12 19 24 26 26 23 22 22 23 24 22 20 19 17
6 6 6 3 3 3 4 3 4 5 3 2 5 5 1 4 0 2 5 4 5 3 4 6 6 6 7 7 8 12 18 22 27 28 25 24 24 24 23 21 20 19 17
5 6 4 3 4 3 3 3 3 3 4 4 1 3 2 3 2 1 2 4 3 3 4 2 4 4 6 5 12 14 16 21 25 28 27 26 26 27 25 22 20 18 14
6 5 5 5 3 3 3 3 3 4 3 3 3 2 3 3 2 2 2 1 2 2 2 3 4 4 5 5 5 10 17 15 20 27 25 26 27 27 25 23 19 16 12
1 1 2 3 3 3 4 4 4 5 5 4 4 4 4 3 4 3 3 2 4 1 3 3 3 2 4 4 7 17 18 18 22 24 23 27 26 24 23 22 19 15 14
1 3 1 3 3 4 4 4 3 4 4 3 5 4 4 4 3 3 3 2 3 2 1 3 3 2 3 8 10 20 24 28 31 26 27 25 23 24 21 20 17 15 14
4 3 3 3 3 4 5 4 2 3 4 3 5 5 4 4 4 4 5 4 3 2 3 2 2 3 5 9 15 22 18 30 30 26 25 24 21 20 17 13 15 12 11
3 4 4 2 1 1 1 4 3 3 1 3 4 3 3 2 2 3 4 5 5 5 2 2 1 2 3 9 18 15 18 28 27 25 24 22 21 18 14 11 13 13 11
5 4 4 3 2 4 2 2 1 1 6 3 2 3 3 2 2 1 3 2 3 5 4 2 1 1 6 8 19 17 19 26 28 27 25 21 16 15 14 13 12 12 10
5 5 5 4 4 3 2 1 2 5 6 4 2 3 4 4 3 5 6 3 6 6 8 3 2 8 10 12 11 16 18 15 15 24 20 16 14 16 14 13 11 9 9
2 5 5 5 4 4 2 3 2 2 5 5 3 5 4 4 4 7 7 7 8 6 8 11 8 7 13 14 12 15 14 12 13 17 18 16 13 14 12 12 11 11 10
5 1 6 6 5 3 2 1 2 3 4 5 4 3 3 7 6 7 9 9 8 7 7 10 10 10 11 13 17 15 14 12 10 17 15 12 11 13 13 13 12 11 11
4 6 6 7 5 4 4 2 1 4 5 4 4 3 3 8 9 9 8 11 9 8 9 12 12 12 12 12 12 17 11 9 10 8 12 10 11 14 13 13 13 14 13
6 5 6 6 6 6 4 5 3 6 6 6 5 5 7 9 10 8 9 10 11 10 10 12 13 13 13 12 13 11 10 8 6 4 6 4 6 6 6 9 12 15 13
6 5 6 9 6 4 7 9 5 6 6 6 8 8 8 12 12 15 13 13 10 14 13 12 11 12 10 11 11 11 12 10 5 2 6 6 4 6 4 4 11 12 12
5 6 7 8 7 5 7 9 7 6 6 5 8 8 8 9 13 13 15 17 16 14 10 15 14 12 13 13 11 10 9 7 5 5 11 5 3 4 3 4 9 10 11
5 5 6 7 6 4 7 8 5 7 6 6 7 9 10 12 14 14 14 13 11 9 8 6 10 9 12 9 10 11 8 8 9 7 5 4 1 2 2 2 7 8 10
4 4 5 6 7 5 6 8 5 5 6 7 8 9 10 12 12 14 15 14 12 9 10 13 11 14 13 12 10 7 9 11 7 4 2 5 3 3 3 3 3 8 8
4 5 6 6 8 5 4 7 6 5 7 7 7 8 12 12 13 13 13 14 13 10 10 10 8 9 8 6 7 5 9 10 6 2 4 5 4 5 2 3 4 4 4
Wind_Direction
185 205 229 207 183 172 181 210 209 196 201 222 248 263 215 212 218 200 266 282 194 181 185 188 185 180 179 182 185 187 186 183 186 185 173 173 173 176 183 181 165 171 151
172 194 216 216 189 169 174 195 205 189 184 204 239 240 250 230 212 196 193 250 193 181 189 202 191 191 185 186 189 192 189 186 186 182 177 176 177 181 178 164 162 144 132
171 179 202 214 214 191 169 154 193 188 207 238 254 258 251 256 221 198 186 188 188 192 194 196 205 197 191 193 189 192 187 185 181 177 178 176 176 172 173 153 142 134 127
160 178 199 220 211 179 169 194 217 225 220 220 233 243 239 226 251 208 222 182 188 193 212 204 202 203 199 198 194 191 187 184 180 177 176 169 168 165 151 141 141 136 138
168 167 190 211 188 164 181 203 226 196 209 236 239 245 237 217 235 221 212 207 179 193 189 211 200 204 208 203 199 192 187 184 180 178 168 165 159 152 146 140 134 138 134
169 175 195 215 181 170 206 221 209 217 199 209 247 252 228 231 257 230 218 218 195 201 193 186 191 210 206 209 210 200 187 184 177 172 162 157 152 150 140 137 143 141 140
173 186 184 197 176 195 212 211 202 209 228 195 133 289 286 246 243 242 253 240 237 227 197 177 187 195 206 205 211 203 187 184 175 164 156 148 150 145 141 140 144 142 140
170 177 182 182 204 227 247 242 218 207 218 174 163 146 322 318 266 233 229 227 233 241 205 181 179 184 170 186 196 204 187 183 173 161 152 149 149 141 140 142 143 136 139
145 141 173 186 199 199 250 244 198 176 201 235 192 145 126 233 266 225 225 224 244 206 222 165 188 187 184 181 185 194 185 184 176 162 152 147 147 142 138 141 137 136 147
164 145 142 180 211 211 218 241 197 185 161 217 171 221 199 162 184 342 288 218 221 209 191 151 161 180 154 169 177 175 176 181 174 157 149 147 142 138 137 133 134 135 136
115 155 176 186 188 181 206 200 207 192 185 169 176 165 216 239 178 170 232 314 42 34 136 171 233 159 178 164 170 175 162 164 166 148 145 141 140 135 135 132 129 125 132
125 34 211 183 182 187 215 218 211 200 198 195 199 199 187 168 200 166 189 194 158 75 43 37 38 147 161 138 150 145 135 120 138 125 135 137 135 129 130 127 128 145 168
162 236 160 136 183 207 219 203 187 194 205 186 203 212 204 211 182 147 118 201 140 97 81 28 9 67 137 132 135 132 143 142 136 139 130 130 129 129 135 137 151 162 164
164 159 165 161 206 218 220 186 173 217 216 226 216 203 191 223 192 166 152 159 85 107 63 75 344 27 152 136 140 130 136 132 134 131 126 124 130 126 132 158 154 146 144
150 161 166 158 48 15 122 160 186 218 193 94 38 79 137 130 249 183 161 152 145 146 127 60 52 30 116 137 138 133 135 132 126 123 124 127 128 142 159 164 121 124 116
149 169 157 130 105 64 69 142 206 8 77 91 73 52 101 82 76 54 146 95 120 127 124 124 95 99 106 115 134 131 133 127 124 125 128 137 147 136 121 110 105 105 112
172 164 161 152 123 122 86 66 118 102 104 83 60 93 114 98 72 65 90 95 98 109 119 103 71 110 95 105 119 124 124 122 118 126 133 126 121 117 117 110 107 100 99
196 188 164 130 106 94 53 93 69 119 132 116 89 84 104 92 98 97 88 99 102 99 126 125 121 114 115 114 109 112 111 121 125 122 122 114 124 122 128 118 108 110 111
226 178 136 113 117 111 90 112 143 161 167 143 120 98 108 124 109 99 109 103 104 113 114 118 113 122 114 119 110 93 98 105 107 102 94 102 104 104 106 109 113 119 115
143 135 137 126 130 90 35 339 111 84 100 113 118 113 84 110 118 119 120 119 122 113 109 115 112 114 118 107 111 110 107 102 108 84 73 84 87 91 99 106 114 116 108
135 141 126 123 99 71 32 5 63 101 110 97 78 70 93 111 111 116 134 130 121 111 108 111 112 111 115 114 111 121 117 115 85 98 98 80 88 84 82 93 114 118 113
119 133 89 103 94 76 19 24 69 105 97 107 103 90 97 93 92 95 96 94 114 127 115 112 110 116 110 119 132 131 129 138 122 116 102 89 91 79 72 68 111 114 117
123 112 103 102 97 85 28 27 33 99 104 102 100 100 93 107 108 104 85 83 77 66 94 133 131 133 132 144 136 131 132 119 118 140 114 82 53 79 83 106 115 118 125
124 130 114 108 106 74 36 22 60 110 108 102 101 103 108 117 127 120 107 99 97 101 102 112 118 129 132 132 131 128 129 109 104 124 103 102 158 95 97 84 131 139 143
129 139 125 121 113 91 39 24 105 110 99 96 105 115 120 127 124 126 121 115 108 88 62 82 92 111 111 121 135 117 129 128 132 171 163 114 176 118 170 193 191 175 167
157 127 111 118 113 107 42 37 103 107 102 100 95 108 118 131 130 120 130 132 130 135 124 110 101 83 90 104 112 136 143 143 141 112 217 105 143 151 183 195 182 192 193